TimeMST,TemperatureF,Dew PointF,Humidity,Sea Level PressureIn,VisibilityMPH,Wind Direction,Wind SpeedMPH,Gust SpeedMPH,PrecipitationIn,Events,Conditions,WindDirDegrees,DateUTC
5:00 AM,11,9,85,29.90,2,East,5.8,,,,Partly Cloudy,80,2012-11-21 12:00:00
5:00 AM,10.4,8.6,92,29.90,2.0,East,5.8,-,N/A,,Overcast,80,2012-11-21 12:00:00
5:46 AM,10.4,8.6,92,29.90,2.0,East,3.5,-,N/A,Snow,Light Snow,80,2012-11-21 12:46:00
6:00 AM,10.4,8.6,92,29.89,2.0,East,5.8,-,N/A,Snow,Light Snow,90,2012-11-21 13:00:00
6:10 AM,10.4,8.6,92,29.90,4.0,East,4.6,-,N/A,Snow,Light Snow,80,2012-11-21 13:10:00
7:00 AM,12.2,10.4,92,29.89,2.0,SSE,6.9,-,N/A,Snow,Light Snow,150,2012-11-21 14:00:00
7:39 AM,12.2,10.4,92,29.88,1.0,SSE,6.9,-,N/A,Snow,Light Snow,160,2012-11-21 14:39:00
8:00 AM,12.2,10.4,92,29.88,0.8,South,9.2,-,N/A,,Overcast,180,2012-11-21 15:00:00
8:17 AM,12.2,10.4,92,29.89,0.5,ESE,8.1,-,N/A,Fog,Light Freezing Fog,120,2012-11-21 15:17:00
9:00 AM,12.2,8.6,85,29.88,0.8,ENE,9.2,-,N/A,,Mist,70,2012-11-21 16:00:00
9:02 AM,12.2,8.6,85,29.88,1.5,ENE,8.1,-,N/A,,Overcast,70,2012-11-21 16:02:00
9:42 AM,8.6,6.8,92,29.91,1.0,ENE,10.4,-,N/A,Snow,Light Snow,60,2012-11-21 16:42:00
10:00 AM,8.6,5.0,85,29.92,1.0,ENE,10.4,-,N/A,Snow,Light Snow,60,2012-11-21 17:00:00
10:11 AM,8.6,5.0,85,29.92,3.0,ENE,12.7,-,N/A,Snow,Light Snow,60,2012-11-21 17:11:00
11:00 AM,8,4,78,29.95,3,ENE,9.2,,,Snow,Light Snow,70,2012-11-21 18:00:00
11:00 AM,8.6,5.0,85,29.95,3.0,ENE,10.4,-,N/A,Snow,Light Snow,70,2012-11-21 18:00:00
12:00 PM,8.6,5.0,85,29.96,2.0,ENE,6.9,-,N/A,Snow,Light Snow,60,2012-11-21 19:00:00
12:41 PM,8.6,6.8,92,29.96,3.0,NNE,8.1,-,N/A,Snow,Light Snow,30,2012-11-21 19:41:00
1:00 PM,8.6,6.8,92,29.96,3.0,NNE,9.2,-,N/A,Snow,Light Snow,30,2012-11-21 20:00:00
2:00 PM,8.6,5.0,85,29.97,2.0,NE,8.1,-,N/A,Snow,Light Snow,40,2012-11-21 21:00:00
3:00 PM,8.6,5.0,85,29.99,2.0,NE,9.2,-,N/A,Snow,Light Snow,40,2012-11-21 22:00:00
4:00 PM,6.8,5.0,92,30.00,2.5,NNE,5.8,-,N/A,Snow,Light Snow,30,2012-11-21 23:00:00
4:09 PM,6.8,5.0,92,30.00,1.0,NE,8.1,-,N/A,Snow,Light Snow,40,2012-11-21 23:09:00
4:36 PM,6.8,3.2,85,30.02,1.5,NE,5.8,-,N/A,Snow,Light Snow,40,2012-11-21 23:36:00
5:00 PM,7,3,78,30.04,2,NE,6.9,,,Snow,Light Snow,40,2012-11-22 00:00:00
5:00 PM,6.8,3.2,85,30.04,2.0,NE,6.9,-,N/A,Snow,Light Snow,40,2012-11-22 00:00:00
6:00 PM,6.8,3.2,85,30.06,5.0,NNE,4.6,-,N/A,Snow,Light Snow,20,2012-11-22 01:00:00
7:00 PM,6.8,3.2,85,30.08,5.0,North,5.8,-,N/A,Snow,Light Snow,360,2012-11-22 02:00:00
7:52 PM,6.8,3.2,85,30.11,0.5,North,8.1,-,N/A,Snow,Light Snow,360,2012-11-22 02:52:00
8:00 PM,6.8,3.2,85,30.11,0.8,North,6.9,-,N/A,Snow,Light Snow,10,2012-11-22 03:00:00
8:25 PM,6.8,3.2,85,30.12,2.0,North,6.9,-,N/A,Snow,Light Snow,360,2012-11-22 03:25:00
9:00 PM,6.8,3.2,85,30.14,3.0,NNW,8.1,-,N/A,Snow,Light Snow,340,2012-11-22 04:00:00
10:00 PM,6.8,3.2,85,29.91,2.0,North,8.1,-,N/A,Snow,Light Snow,350,2012-11-22 05:00:00